Retour au catalogue

STARLINK-31465

ActifCommunicationsVLEO
NORAD 59012·PAYLOAD·🇺🇸 United States

Lancé Feb 23, 2024 depuis Vandenberg Space Force Base

Loading…

Prochains Passages (prochaines 24 heures)

TLE

FraisSource: CelesTrak SupGP

Époque: Sep 14, 2026, 20:48 UTC

1 59012C 24036Q   26257.86715278  .00031643  00000+0  10177-2 0  2579
2 59012  53.1562 279.1866 0001207  82.1339 161.1747 15.31681854    16

Suivez STARLINK-31465 en temps réel avec AllMySat

Download on the App Store